Location: Newark
(25.4800°N, 85.7200°E)
Time: 03:13:51
(UTC+00:00)

N. Korean satellite - Visible Passes

Search period start: 14 October 2019 00:00
Search period end: 24 October 2019 00:00
Orbit: 455 x 508 km, 97.2° (Epoch: 13 October)

Date Brightness Start Highest point End Pass type
(mag) Time Alt. Az. Time Alt. Az. Time Alt. Az.
14 Oct 10.2 23:12:09 10° ENE 23:14:01 14° E 23:15:53 10° SE visible
16 Oct 9.9 12:20:21 10° SW 12:22:42 17° W 12:25:04 10° NW visible
17 Oct 9.3 23:28:34 10° NE 23:31:35 24° E 23:34:36 10° SSE visible
18 Oct 10.5 23:05:24 10° E 23:06:13 11° E 23:07:03 10° ESE visible
20 Oct 9.5 12:12:08 10° SSW 12:14:52 22° W 12:17:36 10° NW visible
20 Oct 8.0 23:45:35 10° NNE 23:49:06 45° E 23:52:39 10° S visible
21 Oct 9.8 23:21:04 10° NE 23:23:46 19° E 23:26:29 10° SE visible
23 Oct 10.2 12:30:53 10° WSW 12:32:22 12° W 12:33:51 10° WNW visible
